Columbia Airport, CA

5:50 PM PDT on October 22, 2019 (GMT -0700)
Columbia Airport

Weather History for KO22 - August, 2019

Change the Weather History Date:

Thursday, August 15, 2019

  Actual Average (WUND) Record (WUND)
Temperature  
Mean Temperature 83 °F -  
Max Temperature 102 °F - - (-1)
Min Temperature 64 °F - - (-1)
Cooling Degree Days 18    
Growing Degree Days 33 (Base 50)    
Moisture  
Dew Point 48 °F    
Average Humidity 35    
Maximum Humidity 60    
Minimum Humidity 12    
Precipitation  
Precipitation 0.00 in - - ()
Sea Level Pressure  
Sea Level Pressure 30.00 in    
Wind  
Wind Speed 1 mph (SW)    
Max Wind Speed 8 mph    
Max Gust Speed 16 mph    
Visibility 10 miles    
Events      
Averages and records for this station are not official NWS values.
T = Trace of Precipitation, MM = Missing Value Source: NWS Daily Summary

Daily Weather History Graph

Daily Weather History Graph

Search for Another Location

Airport or City:

Astronomy

Aug. 15, 2019 Rise Set
Actual Time 6:16 AM PDT 7:55 PM PDT
Civil Twilight 5:48 AM PDT 8:23 PM PDT
Nautical Twilight 5:14 AM PDT 8:56 PM PDT
Astronomical Twilight 4:38 AM PDT 9:32 PM PDT
Moon 8:26 PM PDT (8/15) 6:16 AM PDT (8/15)
Length of Visible Light 14h 34m
Length of Day
13h 38m
Full, 100% of the Moon is Illuminated
Aug 15
Full
Aug 23
Last Quarter
Aug 30
New
Sep 5
First Quarter
Sep 13
Full

Hourly Weather History & Observations

Time (PDT) Temp. Heat Index Dew Point Humidity Pressure Visibility Wind Dir Wind Speed Gust Speed Precip Events Conditions
12:15 AM 69.8 °F - 51.8 °F 53% 30.05 in 10.0 mi Calm Calm - N/A   Clear
12:35 AM 68.0 °F - 51.8 °F 56% 30.05 in 10.0 mi Calm Calm - N/A   Clear
12:55 AM 68.0 °F - 51.8 °F 56% 30.04 in 10.0 mi Calm Calm - N/A   Clear
1:15 AM 68.0 °F - 51.8 °F 56% 30.04 in 10.0 mi Calm Calm - N/A   Clear
1:35 AM 68.0 °F - 51.8 °F 56% 30.04 in 10.0 mi Calm Calm - N/A   Clear
1:55 AM 68.0 °F - 50.0 °F 52% 30.04 in 10.0 mi Calm Calm - N/A   Clear
2:15 AM 68.0 °F - 51.8 °F 56% 30.04 in 10.0 mi Calm Calm - N/A   Clear
2:35 AM 66.2 °F - 50.0 °F 56% 30.03 in 10.0 mi Variable 3.5 mph - N/A   Clear
2:55 AM 66.2 °F - 50.0 °F 56% 30.03 in 10.0 mi Calm Calm - N/A   Clear
3:15 AM 68.0 °F - 50.0 °F 52% 30.03 in 10.0 mi Calm Calm - N/A   Clear
3:35 AM 66.2 °F - 50.0 °F 56% 30.02 in 10.0 mi Calm Calm - N/A   Clear
3:55 AM 66.2 °F - 50.0 °F 56% 30.03 in 10.0 mi Calm Calm - N/A   Clear
4:15 AM 64.4 °F - 50.0 °F 59% 30.03 in 10.0 mi Calm Calm - N/A   Clear
4:35 AM 64.4 °F - 50.0 °F 59% 30.03 in 10.0 mi Calm Calm - N/A   Clear
4:55 AM 64.4 °F - 50.0 °F 59% 30.03 in 10.0 mi Calm Calm - N/A   Clear
5:15 AM 64.4 °F - 50.0 °F 59% 30.03 in 10.0 mi Calm Calm - N/A   Clear
5:35 AM 64.4 °F - 50.0 °F 59% 30.03 in 10.0 mi Calm Calm - N/A   Clear
5:55 AM 64.4 °F - 50.0 °F 59% 30.03 in 10.0 mi Calm Calm - N/A   Clear
6:15 AM 64.4 °F - 50.0 °F 59% 30.02 in 10.0 mi Calm Calm - N/A   Clear
6:35 AM 64.4 °F - 50.0 °F 59% 30.03 in 10.0 mi Calm Calm - N/A   Clear
6:55 AM 64.4 °F - 50.0 °F 59% 30.03 in 10.0 mi Calm Calm - N/A   Clear
7:15 AM 66.2 °F - 51.8 °F 60% 30.04 in 10.0 mi Calm Calm - N/A   Clear
7:35 AM 68.0 °F - 53.6 °F 60% 30.03 in 10.0 mi Calm Calm - N/A   Clear
7:55 AM 71.6 °F - 55.4 °F 57% 30.04 in 10.0 mi Calm Calm - N/A   Clear
8:55 AM 82.4 °F 81.7 °F 55.4 °F 39% 30.03 in 10.0 mi Calm Calm - N/A   Clear
9:35 AM 87.8 °F - 48.2 °F 25% 30.03 in 9.0 mi Calm Calm - N/A   Clear
9:55 AM 89.6 °F - 48.2 °F 24% 30.03 in 10.0 mi Calm Calm - N/A   Clear
10:15 AM 91.4 °F - 48.2 °F 23% 30.03 in 10.0 mi Calm Calm - N/A   Clear
10:35 AM 93.2 °F - 48.2 °F 21% 30.03 in 10.0 mi Calm Calm - N/A   Clear
10:55 AM 93.2 °F - 48.2 °F 21% 30.03 in 10.0 mi Calm Calm - N/A   Clear
11:15 AM 95.0 °F - 48.2 °F 20% 30.03 in 10.0 mi Variable 4.6 mph - N/A   Clear
11:35 AM 96.8 °F - 48.2 °F 19% 30.03 in 10.0 mi Variable 4.6 mph - N/A   Clear
11:55 AM 96.8 °F - 46.4 °F 18% 30.02 in 10.0 mi Variable 4.6 mph - N/A   Clear
12:15 PM 96.8 °F - 44.6 °F 17% 30.02 in 10.0 mi Variable 5.8 mph - N/A   Clear
12:35 PM 98.6 °F - 44.6 °F 16% 30.02 in 10.0 mi Calm Calm - N/A   Clear
12:55 PM 96.8 °F - 41.0 °F 15% 30.01 in 10.0 mi Calm Calm - N/A   Partly Cloudy
1:15 PM 98.6 °F - 41.0 °F 14% 30.01 in 9.0 mi SSW 3.5 mph - N/A   Clear
1:35 PM 100.4 °F - 44.6 °F 15% 30.00 in 10.0 mi Variable 4.6 mph - N/A   Clear
1:55 PM 100.4 °F - 44.6 °F 15% 30.00 in 10.0 mi Variable 4.6 mph - N/A   Clear
2:15 PM 100.4 °F - 46.4 °F 16% 29.99 in 10.0 mi Variable 5.8 mph - N/A   Clear
2:35 PM 100.4 °F - 48.2 °F 17% 29.99 in 10.0 mi Variable 5.8 mph 12.7 mph N/A   Clear
2:55 PM 100.4 °F - 48.2 °F 17% 29.99 in 10.0 mi Variable 8.1 mph 13.8 mph N/A   Clear
3:15 PM 102.2 °F - 48.2 °F 16% 29.98 in 10.0 mi Variable 4.6 mph 13.8 mph N/A   Clear
3:35 PM 102.2 °F - 46.4 °F 15% 29.98 in 10.0 mi Variable 5.8 mph - N/A   Clear
3:55 PM 100.4 °F - 44.6 °F 15% 29.97 in 10.0 mi Variable 6.9 mph - N/A   Clear
4:15 PM 100.4 °F - 44.6 °F 15% 29.97 in 10.0 mi Variable 6.9 mph - N/A   Clear
4:35 PM 100.4 °F - 44.6 °F 15% 29.96 in 10.0 mi Variable 5.8 mph 16.1 mph N/A   Clear
4:55 PM 100.4 °F - 41.0 °F 13% 29.96 in 10.0 mi Variable 6.9 mph - N/A   Clear
5:15 PM 100.4 °F - 39.2 °F 12% 29.96 in 10.0 mi WSW 8.1 mph - N/A   Clear
5:35 PM 98.6 °F - 37.4 °F 12% 29.96 in 10.0 mi SW 4.6 mph - N/A   Clear
5:55 PM 98.6 °F - 39.2 °F 13% 29.95 in 10.0 mi Variable 5.8 mph - N/A   Clear
6:15 PM 98.6 °F - 37.4 °F 12% 29.95 in 10.0 mi Variable 5.8 mph - N/A   Clear
6:35 PM 96.8 °F - 37.4 °F 13% 29.95 in 10.0 mi Variable 6.9 mph - N/A   Clear
6:55 PM 95.0 °F - 41.0 °F 15% 29.95 in 10.0 mi SW 3.5 mph - N/A   Clear
7:15 PM 95.0 °F - 41.0 °F 15% 29.95 in 10.0 mi SW 3.5 mph - N/A   Clear
7:35 PM 89.6 °F - 42.8 °F 20% 29.95 in 10.0 mi Calm Calm - N/A   Clear
7:55 PM 86.0 °F - 44.6 °F 23% 29.95 in 10.0 mi Calm Calm - N/A   Clear
8:15 PM 84.2 °F - 50.0 °F 30% 29.95 in 10.0 mi Calm Calm - N/A   Clear
8:35 PM 80.6 °F - 50.0 °F 34% 29.96 in 10.0 mi Calm Calm - N/A   Clear
8:55 PM 80.6 °F - 50.0 °F 34% 29.96 in 10.0 mi Calm Calm - N/A   Clear
9:15 PM 78.8 °F - 48.2 °F 34% 29.96 in 10.0 mi Calm Calm - N/A   Clear
9:35 PM 75.2 °F - 48.2 °F 38% 29.96 in 10.0 mi Calm Calm - N/A   Clear
9:55 PM 75.2 °F - 48.2 °F 38% 29.96 in 10.0 mi Calm Calm - N/A   Clear
10:35 PM 71.6 °F - 48.2 °F 43% 29.96 in 10.0 mi Calm Calm - N/A   Clear
10:55 PM 71.6 °F - 50.0 °F 46% 29.96 in 10.0 mi Calm Calm - N/A   Clear
11:15 PM 71.6 °F - 50.0 °F 46% 29.96 in 10.0 mi Calm Calm - N/A   Clear
11:35 PM 71.6 °F - 50.0 °F 46% 29.96 in 10.0 mi Variable 4.6 mph - N/A   Clear
11:55 PM 69.8 °F - 48.2 °F 46% 29.96 in 10.0 mi Calm Calm - N/A   Clear